軌道要素
Epoch 2016 Sept. 9.0 TT = JDT 2457640.5
T 2016 Aug. 29.97253 TT MPCW
q 2.9530298 (2000.0) P Q
n 0.05850545 Peri. 186.94607 -0.51579428 -0.82110829
a 6.5716109 Node 294.37505 +0.79836235 -0.35720163
e 0.5506384 Incl. 15.56494 +0.31076329 -0.44518330
P 16.85
From 263 observations 1999 Nov. 5-2017 Apr. 2, mean residual 0".7.
|